Molokai, HI

10:35 PM HST on May 26, 2017 (GMT -1000)
Molokai

Weather History for PHMK - February, 2014

Change the Weather History Date:

Wednesday, February 12, 2014

  Actual Average Record
Temperature  
Mean Temperature 72 °F -  
Max Temperature 80 °F 78 °F 84 °F (2016)
Min Temperature 64 °F 63 °F 55 °F (2006)
Cooling Degree Days 7    
Growing Degree Days 22 (Base 50)    
Moisture  
Dew Point 67 °F    
Average Humidity 84    
Maximum Humidity 100    
Minimum Humidity 58    
Precipitation  
Precipitation 0.02 in - - ()
Sea Level Pressure  
Sea Level Pressure 29.98 in    
Wind  
Wind Speed 5 mph (NNE)    
Max Wind Speed 10 mph    
Max Gust Speed -    
Visibility 10 miles    
Events      
Averages and records for this station are not official NWS values.
T = Trace of Precipitation, MM = Missing Value Source: NWS Daily Summary

Daily Weather History Graph

Daily Weather History Graph

Search for Another Location

Airport or City:

Trip Planner

Search our weather history database for the weather conditions in past years. The results will help you decide how hot, cold, wet, or windy it might be!

Date:

Astronomy

Feb. 12, 2014 Rise Set
Actual Time 7:00 AM HST 6:25 PM HST
Civil Twilight 6:37 AM HST 6:47 PM HST
Nautical Twilight 6:11 AM HST 7:14 PM HST
Astronomical Twilight 5:45 AM HST 7:40 PM HST
Moon 4:52 PM HST (2/12) 5:18 AM HST (2/12)
Length of Visible Light 12h 10m
Length of Day
11h 24m
Waxing Gibbous, 96% of the Moon is Illuminated
Feb 12
Waxing Gibbous
Feb 14
Full
Feb 22
Last Quarter
Feb 28
New
Mar 8
First Quarter

Hourly Weather History & Observations

Time (HST) Temp. Heat Index Dew Point Humidity Pressure Visibility Wind Dir Wind Speed Gust Speed Precip Events Conditions
12:54 AM 71.1 °F - 70.0 °F 96% 30.01 in 10.0 mi NNE 8.1 mph - N/A   Clear
1:54 AM 69.1 °F - 69.1 °F 100% 30.00 in 10.0 mi East 5.8 mph - N/A   Clear
2:54 AM 69.1 °F - 68.0 °F 96% 29.99 in 10.0 mi Calm Calm - N/A   Clear
3:54 AM 68.0 °F - 68.0 °F 100% 29.98 in 10.0 mi NNE 4.6 mph - N/A   Clear
4:54 AM 71.1 °F - 70.0 °F 96% 29.98 in 10.0 mi NNE 6.9 mph - N/A   Clear
5:54 AM 66.9 °F - 66.0 °F 97% 29.99 in 10.0 mi East 8.1 mph - N/A   Clear
6:54 AM 64.0 °F - 64.0 °F 100% 30.01 in 10.0 mi NW 3.5 mph - N/A   Clear
7:54 AM 68.0 °F - 66.9 °F 96% 30.02 in 10.0 mi Calm Calm - N/A   Clear
8:54 AM 73.9 °F - 66.9 °F 79% 30.02 in 10.0 mi Calm Calm - N/A   Clear
9:54 AM 77.0 °F - 66.9 °F 71% 30.03 in 10.0 mi SSW 6.9 mph - N/A   Clear
10:54 AM 79.0 °F - 66.9 °F 66% 30.03 in 10.0 mi WNW 4.6 mph - N/A   Clear
11:54 AM 80.1 °F 82.7 °F 68.0 °F 67% 30.00 in 10.0 mi SSE 9.2 mph - N/A   Partly Cloudy
12:54 PM 79.0 °F - 66.0 °F 64% 29.98 in 10.0 mi SSW 9.2 mph - N/A   Partly Cloudy
1:54 PM 80.1 °F 81.7 °F 64.0 °F 58% 29.95 in 10.0 mi SSE 9.2 mph - N/A   Partly Cloudy
2:54 PM 80.1 °F 81.9 °F 64.9 °F 60% 29.93 in 10.0 mi South 10.4 mph - N/A   Partly Cloudy
3:54 PM 77.0 °F - 68.0 °F 74% 29.92 in 10.0 mi North 5.8 mph - N/A   Scattered Clouds
4:54 PM 77.0 °F - 68.0 °F 74% 29.93 in 10.0 mi NNW 3.5 mph - N/A   Scattered Clouds
5:54 PM 75.9 °F - 66.9 °F 74% 29.94 in 10.0 mi Calm Calm - 0.01 in   Scattered Clouds
6:54 PM 70.0 °F - 68.0 °F 93% 29.97 in 10.0 mi NNW 3.5 mph - N/A   Scattered Clouds
7:54 PM 70.0 °F - 68.0 °F 93% 29.98 in 10.0 mi North 4.6 mph - N/A   Clear
8:54 PM 69.1 °F - 66.9 °F 93% 29.97 in 10.0 mi NNE 3.5 mph - N/A   Clear
9:54 PM 69.1 °F - 66.0 °F 90% 29.97 in 10.0 mi NNE 4.6 mph - N/A   Clear
10:54 PM 69.1 °F - 66.0 °F 90% 29.97 in 10.0 mi NE 3.5 mph - N/A   Clear
11:54 PM 66.0 °F - 64.0 °F 93% 29.97 in 10.0 mi Calm Calm - 0.01 in   Clear